EW1440 Weather Reports


time (UTC)temp
C
wind
direction
speed
KPH
gust
KPH
rain 1hr
cm
rain 24hr
cm
rain mn
cm
humidity
%
barometer
mb
20260510095030 19 0 0.0 3.2 0.00 0.05 0.00 88 1011.9
20260510094551 19 149 1.6 6.4 0.00 0.05 0.00 88 1011.9
20260510094031 19 149 1.6 6.4 0.00 0.05 0.00 88 1011.7
20260510093534 19 149 1.6 6.4 0.00 0.05 0.00 88 1011.7
20260510093048 19 149 3.2 8.0 0.00 0.05 0.00 88 1011.6
20260510092534 19 149 1.6 8.0 0.00 0.05 0.00 87 1011.6
20260510092031 19 149 3.2 9.7 0.00 0.05 0.00 86 1011.6
20260510091548 19 170 3.2 9.7 0.00 0.05 0.00 86 1011.5
20260510091030 19 175 3.2 6.4 0.00 0.05 0.00 85 1011.5
20260510090531 19 210 3.2 6.4 0.00 0.05 0.00 85 1011.5
20260510090056 19 210 3.2 6.4 0.00 0.05 0.00 85 1011.5
20260510085533 19 141 1.6 6.4 0.00 0.05 0.00 85 1011.5
20260510085033 19 0 0.0 3.2 0.00 0.05 0.00 84 1011.5
20260510084545 19 141 0.0 3.2 0.00 0.05 0.00 84 1011.6
20260510084034 20 141 1.6 3.2 0.00 0.05 0.00 84 1011.5
20260510083530 20 141 1.6 3.2 0.00 0.05 0.00 84 1011.5
20260510083048 20 141 1.6 3.2 0.00 0.05 0.00 84 1011.5
20260510082534 20 141 0.0 3.2 0.00 0.05 0.00 83 1011.6
20260510082034 20 141 0.0 1.6 0.00 0.05 0.00 83 1011.5
20260510081546 20 0 0.0 1.6 0.00 0.05 0.00 82 1011.5
20260510081034 20 0 0.0 3.2 0.00 0.05 0.00 82 1011.5
20260510080534 20 0 0.0 3.2 0.00 0.05 0.00 82 1011.5
20260510080059 20 141 1.6 3.2 0.00 0.05 0.00 81 1011.4
20260510075533 21 141 0.0 3.2 0.00 0.05 0.00 81 1011.5
20260510075031 21 0 0.0 3.2 0.00 0.05 0.00 80 1011.5
20260510074551 21 0 0.0 3.2 0.00 0.05 0.00 80 1011.6
20260510074033 21 0 1.6 3.2 0.00 0.05 0.00 80 1011.5
20260510073536 21 141 0.0 3.2 0.00 0.05 0.00 79 1011.5
20260510073108 21 0 0.0 1.6 0.00 0.05 0.00 79 1011.5
20260510072533 22 0 0.0 4.8 0.00 0.05 0.00 79 1011.6
20260510072035 22 141 0.0 6.4 0.00 0.05 0.00 78 1011.6
20260510071546 22 141 1.6 6.4 0.00 0.05 0.00 78 1011.6
20260510071030 22 0 0.0 0.0 0.00 0.05 0.00 78 1011.8
20260510070530 22 0 0.0 3.2 0.00 0.05 0.00 78 1011.7
20260510070056 22 0 0.0 4.8 0.00 0.05 0.00 78 1011.7
20260510065531 22 0 0.0 6.4 0.00 0.05 0.00 78 1011.8
20260510065030 22 141 1.6 9.7 0.00 0.05 0.00 78 1011.7
20260510064619 22 141 3.2 9.7 0.00 0.05 0.00 78 1011.8
20260510064033 23 139 4.8 9.7 0.00 0.05 0.00 77 1011.8
20260510063534 23 140 6.4 11.3 0.00 0.05 0.00 77 1011.8
20260510063048 23 155 6.4 11.3 0.00 0.05 0.00 77 1011.8
20260510062531 23 161 4.8 12.9 0.00 0.05 0.00 77 1011.7
20260510062033 23 152 4.8 14.5 0.00 0.05 0.00 77 1011.7
20260510061548 23 153 8.0 14.5 0.00 0.05 0.00 77 1011.8
20260510061037 23 162 6.4 11.3 0.00 0.05 0.00 77 1011.7
20260510060539 23 169 4.8 12.9 0.00 0.05 0.00 76 1011.8
20260510060046 23 170 4.8 14.5 0.00 0.05 0.00 76 1011.7
20260510055533 23 193 8.0 22.5 0.00 0.05 0.00 76 1011.6
20260510055036 23 161 6.4 22.5 0.00 0.05 0.00 76 1011.6
20260510054546 23 173 9.7 17.7 0.00 0.05 0.00 76 1011.5
20260510054034 23 149 8.0 17.7 0.00 0.05 0.00 76 1011.5
20260510053530 23 174 9.7 17.7 0.00 0.05 0.00 75 1011.3
20260510053050 23 151 11.3 19.3 0.00 0.05 0.00 75 1011.3
20260510052538 24 170 8.0 19.3 0.00 0.05 0.00 75 1011.2
20260510052035 24 152 9.7 19.3 0.00 0.05 0.00 74 1011.2
20260510051552 24 164 9.7 24.1 0.00 0.05 0.00 74 1011.2
20260510051036 24 164 11.3 25.7 0.00 0.05 0.00 74 1011.1
20260510050533 24 138 9.7 25.7 0.00 0.05 0.00 74 1011.1
20260510050058 24 173 8.0 20.9 0.00 0.05 0.00 74 1011.1
20260510045537 24 155 9.7 20.9 0.00 0.05 0.05 75 1011.0
20260510045034 24 164 11.3 17.7 0.00 0.05 0.05 75 1011.0
20260510044552 24 151 8.0 14.5 0.00 0.05 0.05 75 1011.0
20260510044033 24 170 6.4 16.1 0.00 0.05 0.05 75 1011.0
20260510043533 24 170 8.0 16.1 0.00 0.05 0.05 75 1011.1
20260510043047 24 158 8.0 14.5 0.00 0.05 0.05 75 1011.1
20260510042539 24 137 6.4 12.9 0.00 0.05 0.05 75 1011.1
20260510042036 24 155 6.4 11.3 0.00 0.05 0.05 75 1011.0
20260510041555 24 150 4.8 11.3 0.00 0.05 0.05 75 1011.0
20260510041034 24 169 3.2 11.3 0.00 0.05 0.05 75 1011.0
20260510040534 25 146 4.8 12.9 0.00 0.05 0.05 75 1011.1
20260510040053 25 153 4.8 12.9 0.00 0.05 0.05 74 1011.0
20260510035533 25 172 6.4 12.9 0.00 0.05 0.05 74 1010.9
20260510035036 25 149 4.8 11.3 0.00 0.05 0.05 74 1011.0
20260510034609 25 161 6.4 12.9 0.00 0.05 0.05 74 1011.0
20260510034034 25 176 6.4 12.9 0.00 0.05 0.05 74 1010.9
20260510033536 25 153 4.8 9.7 0.00 0.05 0.05 74 1010.8
20260510033052 25 147 4.8 9.7 0.00 0.05 0.05 74 1010.8
20260510032533 25 152 4.8 9.7 0.00 0.05 0.05 74 1010.7
20260510032034 25 178 4.8 9.7 0.00 0.05 0.05 73 1010.6
20260510031547 25 156 4.8 9.7 0.00 0.05 0.05 73 1010.6
20260510031034 25 178 4.8 9.7 0.00 0.05 0.05 73 1010.5
20260510030533 25 158 4.8 9.7 0.00 0.05 0.05 73 1010.5
20260510030046 25 161 4.8 9.7 0.00 0.05 0.05 73 1010.4
20260510025536 25 153 4.8 9.7 0.00 0.05 0.05 72 1010.4
20260510025034 25 178 4.8 11.3 0.00 0.05 0.05 72 1010.3
20260510024545 25 155 4.8 11.3 0.00 0.05 0.05 72 1010.3
20260510024037 25 172 6.4 9.7 0.00 0.05 0.05 71 1010.3
20260510023534 25 174 4.8 9.7 0.00 0.05 0.05 71 1010.2
20260510023049 25 139 4.8 9.7 0.00 0.05 0.05 70 1010.2
20260510022534 26 158 4.8 9.7 0.00 0.05 0.05 69 1010.1
20260510022034 26 172 3.2 6.4 0.00 0.05 0.05 69 1010.1
20260510021558 26 172 3.2 4.8 0.00 0.05 0.05 69 1010.0
20260510021033 26 172 1.6 4.8 0.00 0.05 0.05 68 1009.9
20260510020533 26 172 1.6 4.8 0.00 0.05 0.05 67 1009.8
20260510020047 27 172 3.2 6.4 0.00 0.05 0.05 65 1009.7
20260510015534 27 172 3.2 6.4 0.00 0.05 0.05 64 1009.6
20260510015033 27 198 3.2 6.4 0.00 0.05 0.05 64 1009.4
20260510014552 27 183 3.2 9.7 0.00 0.05 0.05 64 1009.3
20260510014033 27 181 3.2 9.7 0.00 0.05 0.05 63 1009.2
20260510013533 27 185 4.8 9.7 0.00 0.05 0.05 63 1009.1
20260510013046 28 182 4.8 9.7 0.00 0.05 0.05 63 1009.0
20260510012533 28 187 4.8 8.0 0.00 0.05 0.05 62 1008.9
20260510012034 28 187 3.2 8.0 0.00 0.05 0.05 62 1008.8
20260510011555 28 181 4.8 8.0 0.00 0.05 0.05 62 1008.7
20260510011035 28 176 4.8 9.7 0.00 0.05 0.05 61 1008.6
20260510010536 28 178 4.8 9.7 0.00 0.05 0.05 61 1008.6
20260510010049 29 182 3.2 11.3 0.00 0.05 0.05 61 1008.4
20260510005534 29 172 4.8 11.3 0.00 0.05 0.05 60 1008.5
20260510005033 29 178 4.8 11.3 0.00 0.05 0.05 60 1008.4
20260510004551 29 190 4.8 11.3 0.00 0.05 0.05 59 1008.3
20260510004033 30 186 4.8 11.3 0.00 0.05 0.05 59 1008.4
20260510003534 30 201 4.8 11.3 0.00 0.05 0.05 59 1008.4
20260510003102 30 194 4.8 14.5 0.00 0.05 0.05 59 1008.3
20260510002534 30 185 8.0 16.1 0.00 0.05 0.05 58 1008.4
20260510002034 30 187 8.0 16.1 0.00 0.05 0.05 57 1008.4
20260510001552 30 155 6.4 11.3 0.00 0.05 0.05 55 1008.4
20260510001033 30 141 4.8 12.9 0.00 0.05 0.05 55 1008.3
20260510000532 30 160 6.4 12.9 0.00 0.05 0.05 54 1008.4
20260510000053 30 134 6.4 11.3 0.00 0.05 0.05 52 1008.4
20260509235535 31 166 3.2 16.1 0.00 0.05 0.05 53 1008.5
20260509235033 31 174 6.4 16.1 0.00 0.05 0.05 54 1008.5
20260509234551 31 126 4.8 9.7 0.00 0.05 0.05 54 1008.4
20260509234034 31 189 1.6 9.7 0.00 0.05 0.05 52 1008.4
20260509233534 31 230 3.2 12.9 0.00 0.05 0.05 51 1008.3
20260509233050 31 172 8.0 12.9 0.00 0.05 0.05 53 1008.4
20260509232536 31 165 3.2 9.7 0.00 0.05 0.05 51 1008.4
20260509232033 31 152 1.6 12.9 0.00 0.05 0.05 53 1008.4
20260509231547 31 228 4.8 12.9 0.00 0.05 0.05 51 1008.3
20260509231033 31 26 0.0 6.4 0.00 0.05 0.05 52 1008.3
20260509230534 31 82 1.6 6.4 0.00 0.05 0.05 51 1008.3
20260509230049 31 47 3.2 9.7 0.00 0.05 0.05 50 1008.3
20260509225534 31 149 4.8 9.7 0.00 0.05 0.05 50 1008.2
20260509225033 31 150 1.6 11.3 0.00 0.05 0.05 47 1008.2
20260509224545 31 160 4.8 11.3 0.00 0.05 0.05 48 1008.3
20260509224034 31 174 3.2 11.3 0.00 0.05 0.05 53 1008.3
20260509223534 31 224 3.2 11.3 0.00 0.05 0.05 48 1008.3
20260509223046 31 251 3.2 11.3 0.00 0.05 0.05 50 1008.4
20260509222533 31 152 1.6 14.5 0.00 0.05 0.05 52 1008.4
20260509222035 31 241 3.2 14.5 0.00 0.05 0.05 50 1008.3
20260509221548 31 245 8.0 14.5 0.00 0.05 0.05 51 1008.4
20260509221034 31 181 6.4 14.5 0.00 0.05 0.05 51 1008.3
20260509220533 31 114 1.6 11.3 0.00 0.05 0.05 49 1008.4
20260509220045 31 217 4.8 14.5 0.00 0.05 0.05 50 1008.5
20260509215534 31 305 6.4 14.5 0.00 0.05 0.05 50 1008.4
20260509215036 31 261 3.2 12.9 0.00 0.05 0.05 52 1008.5
20260509214600 31 253 0.0 9.7 0.00 0.05 0.05 50 1008.4
20260509214034 31 0 0.0 12.9 0.00 0.05 0.05 52 1008.4
20260509213534 32 286 6.4 12.9 0.00 0.05 0.05 51 1008.6
20260509213049 32 239 6.4 12.9 0.00 0.05 0.05 53 1008.7
20260509212536 31 286 3.2 11.3 0.00 0.05 0.05 54 1008.6
20260509212033 31 0 1.6 12.9 0.00 0.05 0.05 53 1008.7
20260509211549 31 257 4.8 16.1 0.00 0.05 0.05 50 1008.8
20260509211035 31 222 9.7 16.1 0.00 0.05 0.05 52 1008.9
20260509210534 31 248 6.4 16.1 0.00 0.05 0.05 50 1008.9
20260509210049 31 291 1.6 16.1 0.00 0.05 0.05 55 1009.0
20260509205534 31 209 8.0 16.1 0.00 0.05 0.05 56 1009.2
20260509205035 31 189 4.8 16.1 0.00 0.05 0.05 58 1009.2
20260509204546 31 169 8.0 16.1 0.00 0.05 0.05 54 1009.3
20260509204033 31 195 6.4 16.1 0.00 0.05 0.05 56 1009.5
20260509203534 31 320 6.4 17.7 0.00 0.05 0.05 58 1009.6
20260509203046 31 220 8.0 17.7 0.00 0.05 0.05 59 1009.6
20260509202536 31 216 4.8 16.1 0.00 0.05 0.05 61 1009.8
20260509202034 30 208 8.0 16.1 0.00 0.05 0.05 62 1009.8
20260509201548 30 208 6.4 19.3 0.00 0.05 0.05 61 1010.0
20260509201033 31 214 6.4 19.3 0.00 0.05 0.05 62 1010.0
20260509200534 30 264 8.0 19.3 0.00 0.05 0.05 60 1010.2
20260509200101 30 180 6.4 12.9 0.00 0.05 0.05 62 1010.2
20260509195534 29 216 4.8 14.5 0.00 0.05 0.05 64 1010.4
20260509195033 31 176 4.8 14.5 0.00 0.05 0.05 63 1010.5
20260509194552 30 230 4.8 14.5 0.00 0.05 0.05 61 1010.5
20260509194036 30 222 8.0 14.5 0.00 0.05 0.05 61 1010.6
20260509193534 30 249 6.4 19.3 0.00 0.05 0.05 65 1010.7
20260509193049 30 230 8.0 19.3 0.00 0.05 0.05 65 1010.7
20260509192537 30 240 3.2 14.5 0.00 0.05 0.05 61 1010.7
20260509192033 30 261 4.8 14.5 0.00 0.05 0.05 65 1010.7
20260509191547 30 273 4.8 16.1 0.00 0.05 0.05 65 1010.8
20260509191036 30 241 4.8 16.1 0.00 0.05 0.05 66 1010.8
20260509190530 30 284 8.0 19.3 0.00 0.05 0.05 65 1010.9
20260509190048 30 174 6.4 19.3 0.00 0.05 0.05 64 1010.9
20260509185532 30 237 11.3 16.1 0.00 0.05 0.05 64 1011.0
20260509185031 28 234 6.4 14.5 0.00 0.05 0.05 70 1011.0
20260509184548 28 212 6.4 16.1 0.00 0.05 0.05 71 1011.1
20260509184033 29 180 8.0 19.3 0.00 0.05 0.05 67 1011.1
20260509183531 28 168 9.7 19.3 0.00 0.05 0.05 69 1011.1
20260509183103 28 245 6.4 20.9 0.00 0.05 0.05 72 1011.3
20260509182534 28 215 6.4 20.9 0.00 0.05 0.05 70 1011.3
20260509182034 28 224 11.3 20.9 0.00 0.05 0.05 71 1011.3
20260509181553 28 248 9.7 19.3 0.00 0.05 0.05 71 1011.4
20260509181033 28 225 11.3 19.3 0.00 0.05 0.05 70 1011.3
20260509180532 28 187 6.4 17.7 0.00 0.05 0.05 69 1011.5
20260509180055 28 257 11.3 19.3 0.00 0.05 0.05 71 1011.5
20260509175531 28 216 11.3 19.3 0.00 0.05 0.05 71 1011.4
20260509175031 28 216 8.0 16.1 0.00 0.05 0.05 77 1011.6
20260509174552 27 225 11.3 17.7 0.00 0.05 0.05 76 1011.6
20260509174034 27 212 8.0 17.7 0.00 0.05 0.05 75 1011.8
20260509173532 27 226 11.3 19.3 0.00 0.05 0.05 73 1011.8
20260509173052 28 236 9.7 20.9 0.00 0.05 0.05 74 1011.9
20260509172531 27 212 11.3 20.9 0.00 0.05 0.05 76 1011.9
20260509172033 27 236 11.3 20.9 0.00 0.05 0.05 74 1011.8
20260509171547 27 174 8.0 22.5 0.00 0.05 0.05 77 1011.8
20260509171033 27 178 12.9 22.5 0.00 0.05 0.05 74 1011.7
20260509170533 27 249 9.7 25.7 0.00 0.05 0.05 77 1011.6
20260509170047 27 211 14.5 25.7 0.00 0.05 0.05 77 1011.7
20260509165533 27 188 16.1 25.7 0.00 0.05 0.05 78 1011.6
20260509165033 27 190 16.1 27.4 0.00 0.05 0.05 77 1011.6
20260509164545 26 247 14.5 27.4 0.00 0.05 0.05 77 1011.6
20260509164033 26 205 14.5 25.7 0.00 0.05 0.05 82 1011.8
20260509163535 26 217 9.7 20.9 0.00 0.05 0.05 78 1011.8
20260509163056 27 212 11.3 20.9 0.00 0.05 0.05 78 1011.8
20260509162533 27 191 11.3 20.9 0.00 0.05 0.05 80 1011.8
20260509162032 27 216 9.7 19.3 0.00 0.05 0.05 78 1012.0
20260509161548 27 259 9.7 19.3 0.00 0.05 0.05 82 1012.0
20260509161033 27 211 8.0 19.3 0.00 0.05 0.05 81 1012.0
20260509160533 26 201 4.8 16.1 0.03 0.05 0.05 80 1012.1
20260509160049 26 189 6.4 16.1 0.05 0.05 0.05 81 1012.3
20260509155533 25 211 4.8 12.9 0.05 0.05 0.05 85 1012.3
20260509155032 25 212 8.0 12.9 0.05 0.05 0.05 87 1012.3
20260509154546 25 211 4.8 12.9 0.05 0.05 0.05 88 1012.4
20260509154032 25 170 8.0 12.9 0.05 0.05 0.05 91 1012.2
20260509153532 25 167 3.2 11.3 0.05 0.05 0.05 93 1012.5
20260509153054 24 93 3.2 11.3 0.05 0.05 0.05 94 1012.6
20260509152533 23 156 4.8 11.3 0.05 0.05 0.05 93 1012.5
20260509152033 24 137 4.8 12.9 0.05 0.05 0.05 93 1012.6
20260509151553 23 166 4.8 12.9 0.05 0.05 0.05 94 1012.5
20260509151032 23 148 4.8 12.9 0.05 0.05 0.05 95 1012.5
20260509150538 23 143 6.4 12.9 0.03 0.03 0.03 94 1012.4
20260509150050 23 106 6.4 11.3 0.00 0.00 0.00 94 1012.4
20260509145534 23 130 4.8 11.3 0.00 0.00 0.00 93 1012.4
20260509145035 23 133 4.8 11.3 0.00 0.00 0.00 94 1012.6
20260509144548 23 92 3.2 6.4 0.00 0.00 0.00 94 1012.5
20260509144034 23 0 0.0 6.4 0.00 0.00 0.00 94 1012.6
20260509143535 23 47 3.2 6.4 0.00 0.00 0.00 94 1012.6
20260509143056 23 82 1.6 4.8 0.00 0.00 0.00 94 1012.5
20260509142533 23 85 3.2 6.4 0.00 0.00 0.00 94 1012.3
20260509142036 23 90 1.6 6.4 0.00 0.00 0.00 94 1012.4
20260509141548 23 70 1.6 6.4 0.00 0.00 0.00 94 1012.2
20260509141034 23 153 1.6 6.4 0.00 0.00 0.00 94 1012.2
20260509140533 23 203 0.0 6.4 0.00 0.00 0.00 94 1012.0
20260509140057 23 54 3.2 6.4 0.00 0.00 0.00 94 1011.9
20260509135535 23 31 3.2 6.4 0.00 0.00 0.00 94 1011.8
20260509135036 23 2 0.0 4.8 0.00 0.00 0.00 94 1011.7
20260509134544 22 71 0.0 4.8 0.00 0.00 0.00 94 1011.6
20260509134035 23 345 0.0 12.9 0.00 0.00 0.00 94 1011.6
20260509133535 23 51 3.2 12.9 0.00 0.00 0.00 94 1011.6
20260509133049 22 40 4.8 11.3 0.00 0.00 0.00 94 1011.6
20260509132534 22 51 3.2 11.3 0.00 0.00 0.00 94 1011.5
20260509132033 22 76 4.8 11.3 0.00 0.00 0.00 95 1011.4
20260509131552 22 97 3.2 8.0 0.00 0.00 0.00 95 1011.7
20260509131033 22 88 1.6 9.7 0.00 0.00 0.00 95 1012.0
20260509130534 22 126 3.2 11.3 0.00 0.00 0.00 94 1011.9
20260509130047 22 160 4.8 11.3 0.00 0.00 0.00 94 1011.8
20260509125533 22 143 6.4 11.3 0.00 0.00 0.00 94 1011.7
20260509125033 22 51 6.4 11.3 0.00 0.00 0.00 94 1011.9
20260509124551 22 70 3.2 12.9 0.00 0.00 0.00 94 1011.9
20260509124033 22 93 4.8 12.9 0.00 0.00 0.00 94 1011.8
20260509123533 22 97 4.8 12.9 0.00 0.00 0.00 94 1012.0
20260509123114 22 68 8.0 17.7 0.00 0.00 0.00 94 1012.2
20260509122534 22 64 6.4 17.7 0.00 0.00 0.00 94 1012.2
20260509122033 22 70 8.0 17.7 0.00 0.00 0.00 94 1012.1
20260509121545 22 55 6.4 12.9 0.00 0.00 0.00 94 1012.1
20260509121033 22 42 4.8 12.9 0.00 0.00 0.00 94 1012.0
20260509120534 22 48 6.4 12.9 0.00 0.00 0.00 94 1011.7
20260509120049 22 51 6.4 12.9 0.00 0.00 0.00 94 1011.5
20260509115535 22 49 4.8 11.3 0.00 0.00 0.00 94 1011.3
20260509115033 22 45 4.8 8.0 0.00 0.00 0.00 94 1011.3
20260509114553 22 34 3.2 8.0 0.00 0.00 0.00 94 1011.0
20260509114034 22 65 3.2 6.4 0.00 0.00 0.00 94 1011.1
20260509113537 22 76 1.6 9.7 0.00 0.00 0.00 94 1010.9
20260509113047 22 70 1.6 9.7 0.00 0.00 0.00 94 1011.0
20260509112533 22 86 3.2 9.7 0.00 0.00 0.00 94 1011.0
20260509112033 22 84 3.2 9.7 0.00 0.00 0.00 94 1011.1
20260509111546 22 95 4.8 9.7 0.00 0.00 0.00 94 1011.0
20260509111034 22 64 3.2 8.0 0.00 0.00 0.00 94 1011.0
20260509110533 22 61 3.2 12.9 0.00 0.00 0.00 94 1010.9
20260509110044 22 60 3.2 14.5 0.00 0.00 0.00 94 1010.8
20260509105534 22 49 4.8 14.5 0.00 0.00 0.00 94 1010.8
20260509105033 22 49 6.4 12.9 0.00 0.00 0.00 94 1010.9
20260509104546 22 67 4.8 11.3 0.00 0.00 0.00 94 1010.8
20260509104035 22 26 3.2 8.0 0.00 0.00 0.00 94 1011.0
20260509103534 22 72 4.8 8.0 0.00 0.00 0.00 94 1010.8
20260509103057 22 53 3.2 9.7 0.00 0.00 0.00 94 1010.7
20260509102534 22 0 1.6 9.7 0.00 0.00 0.00 94 1010.8
20260509102034 22 85 3.2 6.4 0.00 0.00 0.00 94 1010.7
20260509101548 22 101 1.6 6.4 0.00 0.00 0.00 94 1010.8
20260509101035 22 101 1.6 4.8 0.00 0.00 0.00 94 1010.8
20260509100533 22 144 0.0 8.0 0.00 0.00 0.00 93 1010.7
20260509100051 22 144 1.6 8.0 0.00 0.00 0.00 93 1010.7
20260509095533 22 118 3.2 9.7 0.00 0.00 0.00 93 1010.4